{"data":{"norad_id":40080,"epoch":"2026-05-22T15:58:48.200160Z","epoch_age_seconds":279833,"freshness":"STALE","line1":"1 40080U 14038B   26142.66583565 -.00000025  00000+0  00000+0 0  9993","line2":"2 40080   0.0504 346.1892 0004017  52.7384 321.1003  5.00115771216609","mean_motion":5.00115771,"eccentricity":0.0004017,"inclination_deg":0.0504,"raan_deg":346.1892,"arg_perigee_deg":52.7384,"mean_anomaly_deg":321.1003,"bstar":0,"rev_number":21660,"period_min":287.93333134059,"perigee_km":8060.0828367497,"apogee_km":8071.6871640248,"semimajor_km":14444.022000387,"source":"CELESTRAK","updated_at":"2026-05-25T13:38:14.509502Z"}}